Tracking 19575 objects as of 20-Feb-2019
HD Live streaming from Space Station
objects crossing your sky now

COSMOS 736

Track COSMOS 736 now!
10-day predictions
COSMOS 736 is classified as:


NORAD ID: 7825
Int'l Code: 1975-045E
Perigee: 1,476.6 km
Apogee: 1,493.1 km
Inclination: 74.0 °
Period: 115.5 minutes
Semi major axis: 7855 km
RCS: 0.6859 m2 (medium)
Launch date: May 28, 1975
Source: Commonwealth of Independent States (former USSR) (CIS)
Launch site: PLESETSK MISSILE AND SPACE COMPLEX (PKMTR)
aabbcc
Your satellite tracking list
Your tracking list is empty




NASA's NSSDC Master Catalog

Two Line Element Set (TLE):
1  7825U 75045E   19051.22920750 -.00000028  00000-0 -84188-4 0  9991
2  7825  74.0190  25.4142 0010547 168.5077 295.4554 12.46846380990884
Source of the keplerian elements: AFSPC